This is the latest recevied weather packets stored in our database for station/object LU5DTF-1. If no packets are shown the sender has not sent any weather packets the latest 10 day(s).
| Time | Temp. | Humidity | Pressure | Rain* | Wind** | Luminosity | Snow |
|---|---|---|---|---|---|---|---|
| 1777711197 | 8.89° C | 76% | 1017.7 hPa | 0 mm | - | - | - |
| 1777710897 | 8.89° C | 76% | 1017.4 hPa | 0 mm | - | - | - |
| 1777710597 | 8.89° C | 75% | 1017.3 hPa | 0 mm | - | - | - |
| 1777710297 | 9.44° C | 73% | 1017.2 hPa | 0 mm | - | - | - |
| 1777709997 | 9.44° C | 73% | 1017 hPa | 0 mm | - | - | - |
| 1777709697 | 8.89° C | 74% | 1017 hPa | 0 mm | - | - | - |
| 1777709397 | 8.89° C | 76% | 1016.8 hPa | 0 mm | - | - | - |
| 1777709097 | 8.89° C | 77% | 1017 hPa | 0 mm | - | - | - |
| 1777708797 | 8.89° C | 77% | 1017.3 hPa | 0.25 mm | - | - | - |
| 1777708497 | 8.89° C | 78% | 1017.2 hPa | 0.25 mm | - | - | - |
| 1777708197 | 8.89° C | 79% | 1017.2 hPa | 1.02 mm | - | - | - |
| 1777707597 | 8.89° C | 83% | 1016.9 hPa | 1.02 mm | - | - | - |
| 1777707297 | 8.89° C | 85% | 1017.1 hPa | 1.02 mm | - | - | - |
| 1777706997 | 8.89° C | 85% | 1016.9 hPa | 1.02 mm | - | - | - |
| 1777706697 | 8.89° C | 84% | 1016.8 hPa | 1.02 mm | - | - | - |
| 1777706397 | 8.89° C | 83% | 1016.7 hPa | 1.02 mm | - | - | - |
| 1777706097 | 8.89° C | 82% | 1016.6 hPa | 1.02 mm | - | - | - |
| 1777705797 | 8.89° C | 81% | 1016.6 hPa | 1.02 mm | - | - | - |
| 1777705497 | 8.89° C | 81% | 1016.7 hPa | 1.02 mm | - | - | - |
| 1777705197 | 8.89° C | 79% | 1016.7 hPa | 1.02 mm | - | - | - |
| 1777704897 | 9.44° C | 78% | 1016.7 hPa | 1.02 mm | - | - | - |
| 1777704597 | 10° C | 77% | 1016.2 hPa | 0.25 mm | - | - | - |
| 1777704297 | 10° C | 77% | 1016.2 hPa | 0.25 mm | - | - | - |
| 1777703997 | 10° C | 77% | 1016.1 hPa | 0.25 mm | - | - | - |
| 1777703697 | 10° C | 76% | 1016.3 hPa | 0.25 mm | - | - | - |
* Rain latest hour (hover to see other rain measurements)
** Current wind speed in m/s (hover to see current wind gust speed)